Flag for Germany Weather past 2 weeks in Friedrichshafen, Baden-Württemberg, Germany

37 °F

Partly sunny.

Feels Like: 37 °F
Forecast: 30 / 34 °F
Wind: 1 mph from North

Location: Friedrichshafen Airport

Current Time: Nov 26, 2015 at 11:57:14 AM

Latest Report: Nov 26, 2015 at 11:20 AM

Visibility: N/A

Pressure: 29.95 "Hg

Humidity: 81%

Dew point: 32 °F

Location of FriedrichshafenLocation

Historic Weather in Friedrichshafen — Graph


Friedrichshafen temperature yesterday

Maximum temperature yesterday: 39 °F (at 11:50 AM)
Minimum temperature yesterday: 32 °F (at 5:50 AM)
Average temperature yesterday: 37 °F

Past Weeks' High & Low Weather Summary

High63 °F (Nov 15, 1:50 PM)94% (Nov 11, 12:50 PM)30.48 "Hg (Nov 11, 12:50 PM)
Low23 °F (Nov 24, 5:20 AM)36% (Nov 15, 12:50 PM)29.42 "Hg (Nov 21, 1:50 PM)
Average44 °F75%30.08 "Hg
* Reported Nov 11 10:20 AM — Nov 26 10:50 AM, Friedrichshafen, Weather by CustomWeather, © 2015

Note: Actual official high and low records may vary slightly from our data, if they occured in-between our weather recording intervals... More about our weather records


Friedrichshafen weather history for previous 24 hours

Time TempWeatherWind HumidityBarometerVisibility
10:50 AM
Thu, Nov 26
37 °FBroken clouds.No wind81%29.95 "HgN/A
10:20 AM36 °FPartly sunny.1 mph87%29.95 "HgN/A
9:50 AM36 °FSprinkles. Partly sunny.3 mph87%29.92 "Hg4 mi
9:20 AM36 °FSprinkles. Mostly cloudy.2 mph87%29.92 "HgN/A
8:50 AM36 °FCloudy.No wind87%29.92 "HgN/A
8:20 AM34 °FLight rain. Mostly cloudy.3 mph93%29.89 "Hg4 mi
7:50 AM34 °FFog.No wind93%29.89 "Hg2 mi
7:20 AM34 °FFog.1 mph87%29.86 "Hg2 mi
6:50 AM34 °FFog.2 mph87%29.86 "Hg2 mi
6:20 AM34 °FFog.2 mph87%29.83 "Hg3 mi
5:50 AM34 °FFog.No wind87%29.83 "Hg3 mi
5:20 AM34 °FSprinkles. Overcast.1 mph87%29.83 "Hg5 mi
4:50 AM34 °FLight rain. Mostly cloudy.5 mph87%29.80 "HgN/A
4:02 AM36 °FRain showers. Fog.2 mph87%29.80 "Hg3 mi
3:50 AM36 °FSprinkles. Mostly cloudy.2 mph87%29.80 "Hg4 mi
3:20 AM36 °FLight rain. Mostly cloudy.3 mph87%29.80 "Hg4 mi
2:50 AM36 °FMostly cloudy.2 mph87%29.77 "Hg4 mi
2:20 AM36 °FOvercast.2 mph93%29.77 "Hg3 mi
1:50 AM36 °FFog.2 mph93%29.77 "Hg3 mi
1:20 AM36 °FFog.3 mph93%29.77 "Hg3 mi
12:50 AM36 °FFog.5 mph93%29.77 "Hg2 mi
12:20 AM36 °FMostly cloudy.3 mph93%29.77 "Hg3 mi
11:50 PM
Wed, Nov 25
36 °FFog.2 mph93%29.77 "Hg2 mi
11:20 PM37 °FOvercast.3 mph87%29.77 "Hg4 mi
10:50 PM36 °FFog.2 mph93%29.74 "Hg2 mi
10:20 PM36 °FFog.2 mph93%29.74 "Hg2 mi
9:50 PM37 °FFog.1 mph87%29.77 "Hg2 mi
9:20 PM37 °FDrizzle. Mostly cloudy.No wind87%29.77 "Hg4 mi
8:50 PM37 °FDrizzle. Mostly cloudy.No wind87%29.77 "HgN/A
8:20 PM37 °FLight rain. Low clouds.2 mph87%29.77 "HgN/A
7:50 PM37 °FLight rain. Mostly cloudy.3 mph87%29.77 "HgN/A
7:20 PM37 °FLight rain. Mostly cloudy.5 mph81%29.77 "HgN/A
6:50 PM39 °FDrizzle. Overcast.5 mph81%29.77 "HgN/A
6:20 PM39 °FOvercast.5 mph75%29.77 "HgN/A
5:50 PM39 °FMostly cloudy.5 mph81%29.77 "HgN/A
5:20 PM37 °FMostly cloudy.1 mph87%29.74 "HgN/A
4:50 PM37 °FMostly cloudy.2 mph87%29.74 "HgN/A
4:20 PM37 °FOvercast.2 mph87%29.74 "HgN/A
3:50 PM37 °FSprinkles. Mostly cloudy.2 mph87%29.74 "HgN/A
3:20 PM39 °FOvercast.1 mph81%29.74 "HgN/A
2:50 PM39 °FMostly cloudy.2 mph81%29.74 "HgN/A
2:20 PM39 °FDrizzle. Overcast.3 mph81%29.77 "HgN/A
1:50 PM39 °FOvercast.5 mph81%29.77 "HgN/A
1:20 PM39 °FOvercast.6 mph81%29.80 "HgN/A
12:50 PM39 °FMore clouds than sun.7 mph81%29.80 "HgN/A
12:20 PM39 °FMore clouds than sun.2 mph81%29.80 "HgN/A
11:50 AM39 °FSprinkles. More clouds than sun.6 mph81%29.83 "HgN/A
11:20 AM37 °FOvercast.3 mph81%29.83 "HgN/A
Weather by CustomWeather, © 2015

See weather overviewHow to use our weather pages